Rotterdam, Netherlands

1:10 AM CEST on May 01, 2017 (GMT +0200)
Rotterdam

Weather History for EHRD - July, 2013

Change the Weather History Date:

Thursday, July 25, 2013

  Actual Average Record
Temperature  
Mean Temperature 68 °F -  
Max Temperature 82 °F 70 °F 87 °F (2006)
Min Temperature 55 °F 55 °F 46 °F (2011)
Cooling Degree Days 4    
Growing Degree Days 18 (Base 50)    
Moisture  
Dew Point 61 °F    
Average Humidity 74    
Maximum Humidity 100    
Minimum Humidity 43    
Precipitation  
Precipitation 0.00 in - - ()
Sea Level Pressure  
Sea Level Pressure 29.95 in    
Wind  
Wind Speed 4 mph ()    
Max Wind Speed 14 mph    
Max Gust Speed -    
Visibility 7.3 miles    
Events Rain    
Averages and records for this station are not official NWS values.
T = Trace of Precipitation, MM = Missing Value Source: Averaged Metar Reports

Daily Weather History Graph

Daily Weather History Graph

Search for Another Location

Airport or City:

Trip Planner

Search our weather history database for the weather conditions in past years. The results will help you decide how hot, cold, wet, or windy it might be!

Date:

Astronomy

Jul. 25, 2013 Rise Set
Actual Time 5:53 AM CEST 9:42 PM CEST
Civil Twilight 5:10 AM CEST 10:25 PM CEST
Nautical Twilight 4:10 AM CEST 11:24 PM CEST
Astronomical Twilight 2:23 AM CEST 1:06 AM CEST
Moon 10:38 PM CEST (7/25) 9:37 AM CEST (7/25)
Length of Visible Light 17h 14m
Length of Day
15h 48m
Waning Gibbous, 90% of the Moon is Illuminated
Jul 25
Waning Gibbous
Jul 29
Last Quarter
Aug 6
New
Aug 14
First Quarter
Aug 21
Full

Hourly Weather History & Observations

Time (CEST) Temp. Heat Index Dew Point Humidity Pressure Visibility Wind Dir Wind Speed Gust Speed Precip Events Conditions
12:25 AM 60.8 °F - 57.2 °F 88% 29.98 in 6.2 mi Variable 1.2 mph - N/A   Unknown
12:55 AM 59.0 °F - 57.2 °F 94% 29.98 in 6.2 mi WSW 2.3 mph - N/A   Unknown
1:25 AM 59.0 °F - 57.2 °F 94% 29.98 in 6.2 mi Variable 2.3 mph - N/A   Unknown
1:55 AM 60.8 °F - 57.2 °F 88% 29.98 in 6.2 mi Variable 2.3 mph - N/A   Unknown
2:00 AM 60 °F - 57 °F 87% 29.99 in 28 mi SE 2.2 mph - -   Partly Cloudy
2:25 AM 60.8 °F - 57.2 °F 88% 29.98 in 6.2 mi Variable 2.3 mph - N/A   Unknown
2:55 AM 60.8 °F - 57.2 °F 88% 29.98 in 6.2 mi SW 2.3 mph - N/A   Unknown
3:25 AM 60.8 °F - 57.2 °F 88% 29.98 in 6.2 mi Variable 1.2 mph - N/A   Unknown
3:55 AM 57.2 °F - 57.2 °F 100% 29.98 in 6.2 mi Calm Calm - N/A   Unknown
4:25 AM 59.0 °F - 57.2 °F 94% 29.98 in 6.2 mi ESE 1.2 mph - N/A   Unknown
4:55 AM 57.2 °F - 57.2 °F 100% 29.95 in 6.2 mi Calm Calm - N/A   Unknown
5:00 AM 56 °F - 56 °F 98% 29.97 in 19 mi Calm Calm - -   Partly Cloudy
5:25 AM 57.2 °F - 57.2 °F 100% 29.95 in 6.2 mi ENE 2.3 mph - N/A   Unknown
5:55 AM 55.4 °F - 55.4 °F 100% 29.95 in 6.2 mi Calm Calm - N/A   Unknown
6:25 AM 59.0 °F - 57.2 °F 94% 29.95 in 6.2 mi Variable 1.2 mph - N/A   Unknown
6:55 AM 60.8 °F - 60.8 °F 100% 29.95 in 6.2 mi ENE 1.2 mph - N/A   Unknown
7:25 AM 62.6 °F - 60.8 °F 94% 29.95 in 6.2 mi Variable 2.3 mph - N/A   Unknown
7:55 AM 66.2 °F - 62.6 °F 88% 29.98 in 6.2 mi Variable 2.3 mph - N/A Rain Light Rain
8:00 AM 66 °F - 60 °F 77% 29.98 in 19 mi SSE 4.5 mph - - Rain Light Rain Showers
8:25 AM 66.2 °F - 60.8 °F 83% 29.95 in 6.2 mi Variable 2.3 mph - N/A   Partly Cloudy
8:55 AM 68.0 °F - 60.8 °F 78% 29.95 in 6.2 mi Variable 2.3 mph - N/A   Partly Cloudy
9:25 AM 68.0 °F - 62.6 °F 83% 29.95 in 6.2 mi Variable 2.3 mph - N/A   Unknown
9:55 AM 71.6 °F - 60.8 °F 69% 29.95 in 6.2 mi Variable 2.3 mph - N/A   Unknown
10:25 AM 75.2 °F - 59.0 °F 57% 29.95 in 6.2 mi East 4.6 mph - N/A   Unknown
10:55 AM 77.0 °F - 59.0 °F 54% 29.95 in 6.2 mi ESE 8.1 mph - N/A   Unknown
11:00 AM 77 °F - 58 °F 43% 29.95 in 19 mi SE 6.7 mph - -   Partly Cloudy
11:25 AM 77.0 °F - 59.0 °F 54% 29.95 in 6.2 mi SE 10.4 mph - N/A   Unknown
11:55 AM 78.8 °F - 60.8 °F 54% 29.92 in 6.2 mi ESE 10.4 mph - N/A   Unknown
12:25 PM 80.6 °F 81.8 °F 62.6 °F 54% 29.92 in 6.2 mi SE 10.4 mph - N/A   Partly Cloudy
12:55 PM 80.6 °F 82.3 °F 64.4 °F 58% 29.92 in 6.2 mi South 11.5 mph - N/A   Scattered Clouds
1:25 PM 82.4 °F 83.9 °F 64.4 °F 54% 29.92 in 6.2 mi SSE 9.2 mph - N/A   Scattered Clouds
1:55 PM 82.4 °F 83.4 °F 62.6 °F 51% 29.92 in 6.2 mi South 10.4 mph - N/A   Unknown
2:00 PM 81 °F - 63 °F 44% 29.94 in 12 mi South 8.9 mph - -   Partly Cloudy
2:25 PM 82.4 °F 83.4 °F 62.6 °F 51% 29.92 in 6.2 mi South 11.5 mph - N/A   Scattered Clouds
2:55 PM 82.4 °F 83.9 °F 64.4 °F 54% 29.92 in 6.2 mi SW 11.5 mph - N/A   Unknown
3:25 PM 80.6 °F 82.3 °F 64.4 °F 58% 29.92 in 6.2 mi West 10.4 mph - N/A   Unknown
3:55 PM 78.8 °F - 64.4 °F 61% 29.92 in 6.2 mi WSW 13.8 mph - N/A   Unknown
4:25 PM 78.8 °F - 66.2 °F 65% 29.92 in 6.2 mi West 11.5 mph - N/A   Unknown
4:55 PM 77.0 °F - 64.4 °F 65% 29.92 in 6.2 mi West 11.5 mph - N/A   Unknown
5:25 PM 77.0 °F - 64.4 °F 65% 29.95 in 6.2 mi WSW 12.7 mph - N/A   Unknown
5:55 PM 77.0 °F - 60.8 °F 57% 29.95 in 6.2 mi West 10.4 mph - N/A   Unknown
6:25 PM 77.0 °F - 60.8 °F 57% 29.95 in 6.2 mi West 10.4 mph - N/A   Unknown
6:55 PM 77.0 °F - 62.6 °F 61% 29.95 in 6.2 mi WNW 8.1 mph - N/A   Unknown
7:25 PM 75.2 °F - 62.6 °F 65% 29.95 in 6.2 mi West 6.9 mph - N/A   Unknown
7:55 PM 75.2 °F - 62.6 °F 65% 29.95 in 6.2 mi WNW 5.8 mph - N/A   Unknown
8:25 PM 73.4 °F - 62.6 °F 69% 29.95 in 6.2 mi NW 3.5 mph - N/A   Unknown
8:55 PM 73.4 °F - 62.6 °F 69% 29.95 in 6.2 mi WNW 3.5 mph - N/A   Unknown
9:25 PM 71.6 °F - 62.6 °F 73% 29.95 in 6.2 mi Variable 1.2 mph - N/A   Unknown
9:55 PM 69.8 °F - 64.4 °F 83% 29.95 in 6.2 mi Calm Calm - N/A   Unknown
10:25 PM 68.0 °F - 62.6 °F 83% 29.95 in 6.2 mi West 2.3 mph - N/A   Unknown
10:55 PM 68.0 °F - 62.6 °F 83% 29.95 in 6.2 mi Variable 2.3 mph - N/A   Unknown
11:00 PM 67 °F - 61 °F 76% 29.97 in 19 mi SW 2.2 mph - -   Mostly Cloudy
11:25 PM 68.0 °F - 62.6 °F 83% 29.95 in 6.2 mi WSW 3.5 mph - N/A   Unknown
11:55 PM 68.0 °F - 60.8 °F 78% 29.95 in 6.2 mi West 3.5 mph - N/A   Unknown